Location: Ravensburg
(47.7866°N, 9.6124°E)
Time: 05:44:45
(UTC+01:00)

MOZHAYETS 4 - Visible Passes

Search period start: 08 March 2026 00:00
Search period end: 18 March 2026 00:00
Orbit: 643 x 658 km, 98.3° (Epoch: 8 March)

Date Brightness Start Highest point End Pass type
(mag) Time Alt. Az. Time Alt. Az. Time Alt. Az.
8 Mar 8.7 04:41:08 10° SE 04:45:27 47° ENE 04:49:49 10° N visible
8 Mar 10.6 19:43:26 10° NNW 19:46:34 19° WNW 19:49:41 10° WSW visible
9 Mar 10.9 03:34:20 10° E 03:36:09 12° NE 03:37:59 10° NNE visible
9 Mar 7.7 05:07:34 10° SSE 05:12:06 83° ENE 05:16:40 10° NNW visible
9 Mar 11.0 20:11:28 10° NW 20:12:55 11° NW 20:14:22 10° WNW visible
10 Mar 10.3 03:59:15 10° ESE 04:02:32 20° ENE 04:05:50 10° NNE visible
10 Mar 7.8 05:34:25 10° S 05:38:50 55° W 05:43:19 10° NNW visible
10 Mar 9.1 18:59:23 10° N 19:03:39 43° WNW 19:07:53 10° SW visible
11 Mar 9.4 04:24:58 10° SE 04:29:00 33° ENE 04:33:04 10° N visible
11 Mar 8.4 06:01:41 10° SSW 06:05:41 30° W 06:09:42 10° NNW visible
11 Mar 10.1 19:26:28 10° N 19:30:10 26° WNW 19:33:51 10° WSW visible
12 Mar 8.3 04:51:08 10° SSE 04:55:35 57° ENE 05:00:02 10° N visible
12 Mar 10.7 19:53:54 10° NNW 19:56:36 16° WNW 19:59:15 10° W visible
13 Mar 10.7 03:43:41 10° E 03:46:10 15° ENE 03:48:39 10° NNE visible
13 Mar 7.6 05:17:42 10° SSE 05:22:14 80° WSW 05:26:48 10° NNW visible
14 Mar 10.1 04:08:57 10° ESE 04:12:34 24° ENE 04:16:10 10° N visible
14 Mar 8.0 05:44:40 10° S 05:49:00 44° W 05:53:21 10° NNW visible
14 Mar 9.5 19:09:36 10° N 19:13:42 36° WNW 19:17:47 10° SW visible
15 Mar 9.1 04:34:50 10° SE 04:39:03 40° ENE 04:43:17 10° N visible
15 Mar 10.4 19:36:46 10° NNW 19:40:10 22° WNW 19:43:33 10° WSW visible
16 Mar 11.1 03:28:53 10° ENE 03:29:48 11° NE 03:30:43 10° NE visible
16 Mar 8.0 05:01:08 10° SSE 05:05:39 71° ENE 05:10:10 10° N visible
16 Mar 10.9 20:04:26 10° NNW 20:06:32 13° WNW 20:08:37 10° W visible
17 Mar 10.6 03:53:10 10° E 03:56:07 17° ENE 03:59:05 10° NNE visible
17 Mar 7.6 05:27:50 10° S 05:32:19 65° WSW 05:36:51 10° NNW visible
